McCall, ID

1:54 PM MDT on June 26, 2017 (GMT -0600)
McCall

Weather History for KMYL - December, 2012

Change the Weather History Date:

Tuesday, December 18, 2012

  Actual Average Record
Temperature  
Mean Temperature 10 °F 18 °F  
Max Temperature 21 °F 27 °F 48 °F (1979)
Min Temperature -1 °F 9 °F -16 °F (2016)
Degree Days  
Heating Degree Days 55 47  
Month to date heating degree days 701 824  
Since 1 July heating degree days 2753 3462  
Cooling Degree Days 0 0  
Month to date cooling degree days 0 0  
Year to date cooling degree days 172 25  
Moisture  
Dew Point 6 °F    
Average Humidity 84    
Maximum Humidity 100    
Minimum Humidity 67    
Precipitation  
Precipitation 0.00 in 0.08 in 0.97 in (1951)
Month to date precipitation 4.10 1.08  
Year to date precipitation 30.93 19.12  
Sea Level Pressure  
Sea Level Pressure 29.94 in    
Wind  
Wind Speed 1 mph (SE)    
Max Wind Speed 6 mph    
Max Gust Speed 8 mph    
Visibility 9 miles    
Events      
T = Trace of Precipitation, MM = Missing Value Source: NWS Daily Summary

Daily Weather History Graph

Daily Weather History Graph

Search for Another Location

Airport or City:

Trip Planner

Search our weather history database for the weather conditions in past years. The results will help you decide how hot, cold, wet, or windy it might be!

Date:

Astronomy

Dec. 18, 2012 Rise Set
Actual Time 8:17 AM MST 5:04 PM MST
Civil Twilight 7:44 AM MST 5:38 PM MST
Nautical Twilight 7:06 AM MST 6:15 PM MST
Astronomical Twilight 6:31 AM MST 6:51 PM MST
Moon 11:45 AM MST (12/18) 11:51 PM MST (12/18)
Length of Visible Light 9h 54m
Length of Day
8h 47m
Waxing Crescent, 35% of the Moon is Illuminated
Dec 18
Waxing Crescent
Dec 19
First Quarter
Dec 28
Full
Jan 4
Last Quarter
Jan 11
New

Hourly Weather History & Observations

Time (MST) Temp. Windchill Dew Point Humidity Pressure Visibility Wind Dir Wind Speed Gust Speed Precip Events Conditions
12:51 AM 15.1 °F 9.4 °F 10.9 °F 84% 29.88 in 10.0 mi ESE 3.5 mph - N/A   Partly Cloudy
1:51 AM 12.9 °F 6.9 °F 8.1 °F 81% 29.90 in 10.0 mi ESE 3.5 mph - N/A   Partly Cloudy
2:51 AM 10.9 °F - 7.0 °F 84% 29.92 in 10.0 mi Calm Calm - N/A   Scattered Clouds
3:51 AM 10.0 °F - 7.0 °F 87% 29.94 in 10.0 mi Calm Calm - N/A   Mostly Cloudy
4:20 AM 6.8 °F - 5.0 °F 92% 29.80 in 2.5 mi Calm Calm - N/A   Clear
4:27 AM 8.6 °F - 5.0 °F 85% 29.80 in 10.0 mi Calm Calm - N/A   Clear
4:51 AM 8.1 °F - 3.9 °F 83% 29.95 in 10.0 mi Calm Calm - N/A   Clear
5:51 AM 6.1 °F - 1.9 °F 83% 29.96 in 10.0 mi Calm Calm - N/A   Clear
6:51 AM 5.0 °F - -0.0 °F 80% 29.98 in 10.0 mi Calm Calm - N/A   Clear
7:51 AM 3.9 °F -3.4 °F -0.0 °F 84% 29.99 in 10.0 mi NE 3.5 mph - N/A   Clear
8:51 AM 1.0 °F - -4.0 °F 79% 30.00 in 10.0 mi Calm Calm - N/A   Mostly Cloudy
9:11 AM 1.4 °F - -2.2 °F 85% 29.81 in 10.0 mi Calm Calm - N/A   Mostly Cloudy
9:20 AM 5.0 °F - 1.4 °F 85% 29.81 in 10.0 mi Calm Calm - N/A   Mostly Cloudy
9:28 AM 5.0 °F - 1.4 °F 85% 29.81 in 9.0 mi Calm Calm - N/A   Scattered Clouds
9:51 AM 9.0 °F - 3.9 °F 80% 29.98 in 8.0 mi Calm Calm - N/A   Partly Cloudy
11:45 AM 15.8 °F - 12.2 °F 86% 29.82 in 10.0 mi Calm Calm - N/A   Overcast
11:51 AM 15.1 °F 9.4 °F 12.0 °F 88% 29.99 in 10.0 mi South 3.5 mph - N/A   Overcast
12:19 PM 15.8 °F - 12.2 °F 86% 29.81 in 10.0 mi Calm Calm - N/A   Scattered Clouds
12:51 PM 19.0 °F - 12.0 °F 74% 29.96 in 10.0 mi Calm Calm - N/A   Mostly Cloudy
1:44 PM 19.4 °F 14.3 °F 12.2 °F 74% 29.79 in 10.0 mi SSW 3.5 mph - N/A   Mostly Cloudy
1:51 PM 19.0 °F - 12.0 °F 74% 29.95 in 10.0 mi Calm Calm - N/A   Mostly Cloudy
1:59 PM 19.4 °F - 12.2 °F 74% 29.78 in 10.0 mi Calm Calm - N/A   Scattered Clouds
2:51 PM 19.0 °F 13.9 °F 10.9 °F 71% 29.95 in 10.0 mi South 3.5 mph - N/A   Clear
3:51 PM 17.1 °F 10.0 °F 10.0 °F 74% 29.96 in 10.0 mi South 4.6 mph - N/A   Clear
4:51 PM 17.1 °F - 9.0 °F 71% 29.98 in 10.0 mi Calm Calm - N/A   Clear
5:51 PM 12.9 °F - 8.1 °F 81% 30.02 in 5.0 mi Calm Calm - N/A   Haze
6:51 PM 9.0 °F 0.6 °F 5.0 °F 84% 30.06 in 10.0 mi NE 4.6 mph - N/A   Clear
7:51 PM 7.0 °F - 3.0 °F 84% 30.08 in 10.0 mi Calm Calm - N/A   Clear
8:51 PM 3.0 °F - -0.0 °F 87% 30.13 in 9.0 mi Calm Calm - N/A   Mostly Cloudy
9:51 PM 6.1 °F - 1.9 °F 83% 30.09 in 9.0 mi Calm Calm - N/A   Overcast
10:51 PM 5.0 °F - 1.9 °F 87% 30.08 in 10.0 mi Calm Calm - N/A   Overcast
11:51 PM 8.1 °F - 3.9 °F 83% 30.09 in 8.0 mi Calm Calm - N/A   Overcast